Parkersburg, WV

5:40 AM EST on December 12, 2017 (GMT -0500)
Wood County Wilson

Weather History for KPKB - April, 2013

Change the Weather History Date:

Wednesday, April 17, 2013

  Actual Average Record
Temperature  
Mean Temperature 64 °F 55 °F  
Max Temperature 71 °F 67 °F 91 °F (1896)
Min Temperature 57 °F 43 °F 26 °F (1962)
Degree Days  
Heating Degree Days 1 11  
Month to date heating degree days 187 227  
Since 1 July heating degree days 4735 4688  
Cooling Degree Days 0 1  
Month to date cooling degree days 22 7  
Year to date cooling degree days 22 10  
Growing Degree Days 14 (Base 50)    
Moisture  
Dew Point 58 °F    
Average Humidity 83    
Maximum Humidity 100    
Minimum Humidity 66    
Precipitation  
Precipitation 0.01 in 0.11 in 0.40 in (2006)
Month to date precipitation 0.86 1.83  
Year to date precipitation 9.07 11.21  
Sea Level Pressure  
Sea Level Pressure 30.19 in    
Wind  
Wind Speed 1 mph (ENE)    
Max Wind Speed 8 mph    
Max Gust Speed 13 mph    
Visibility 4 miles    
Events Fog    
T = Trace of Precipitation, MM = Missing Value Source: NWS Daily Summary

Daily Weather History Graph

Daily Weather History Graph

Search for Another Location

Airport or City:

Trip Planner

Search our weather history database for the weather conditions in past years. The results will help you decide how hot, cold, wet, or windy it might be!

Date:

Astronomy

Apr. 17, 2013 Rise Set
Actual Time 6:45 AM EDT 8:05 PM EDT
Civil Twilight 6:17 AM EDT 8:33 PM EDT
Nautical Twilight 5:44 AM EDT 9:07 PM EDT
Astronomical Twilight 5:09 AM EDT 9:42 PM EDT
Moon 11:58 AM EDT (4/17) 1:41 AM EDT (4/17)
Length of Visible Light 14h 16m
Length of Day
13h 20m
Waxing Crescent, 42% of the Moon is Illuminated
Apr 17
Waxing Crescent
Apr 18
First Quarter
Apr 25
Full
May 2
Last Quarter
May 9
New

Hourly Weather History & Observations

Time (EDT) Temp. Dew Point Humidity Pressure Visibility Wind Dir Wind Speed Gust Speed Precip Events Conditions
12:24 AM 60.8 °F 59.0 °F 94% 30.18 in 1.8 mi SE 3.5 mph - N/A   Clear
12:38 AM 60.8 °F 59.0 °F 94% 30.18 in 3.0 mi Calm Calm - N/A   Clear
12:41 AM 60.8 °F 59.0 °F 94% 30.18 in 1.5 mi Calm Calm - N/A   Partly Cloudy
12:43 AM 60.8 °F 59.0 °F 94% 30.18 in 0.8 mi Calm Calm - N/A   Mist
12:53 AM 60.1 °F 59.0 °F 96% 30.16 in 0.8 mi Calm Calm - N/A   Mist
12:55 AM 60.8 °F 59.0 °F 94% 30.18 in 1.5 mi Calm Calm - N/A   Partly Cloudy
12:58 AM 60.8 °F 59.0 °F 94% 30.18 in 3.0 mi Calm Calm - N/A   Partly Cloudy
1:00 AM 60.8 °F 59.0 °F 94% 30.18 in 1.8 mi Calm Calm - N/A   Partly Cloudy
1:08 AM 59.0 °F 57.2 °F 94% 30.18 in 0.5 mi Calm Calm - N/A Fog Fog
1:31 AM 57.2 °F 57.2 °F 100% 30.18 in 0.2 mi Calm Calm - N/A Fog Fog
1:45 AM 57.2 °F 57.2 °F 100% 30.17 in 0.8 mi Calm Calm - N/A   Mist
1:53 AM 57.9 °F 57.0 °F 97% 30.16 in 0.8 mi Calm Calm - N/A   Mist
2:11 AM 57.2 °F 57.2 °F 100% 30.17 in 0.2 mi Calm Calm - N/A Fog Fog
2:53 AM 57.0 °F 55.9 °F 96% 30.16 in 0.2 mi Calm Calm - N/A Fog Fog
3:36 AM 57.2 °F 55.4 °F 94% 30.19 in 0.2 mi Calm Calm - N/A Fog Fog
3:53 AM 57.0 °F 57.0 °F 100% 30.17 in 0.2 mi Calm Calm - N/A Fog Fog
4:33 AM 57.2 °F 57.2 °F 100% 30.23 in 0.5 mi NNW 3.5 mph - N/A Fog Fog
4:53 AM 57.9 °F 57.0 °F 97% 30.21 in 0.5 mi Calm Calm - N/A Fog Fog
5:53 AM 57.9 °F 57.9 °F 100% 30.18 in 0.5 mi Calm Calm - 0.00 in Fog Fog
6:00 AM 57.2 °F 57.2 °F 100% 30.20 in 0.2 mi Calm Calm - N/A Fog Fog
6:53 AM 57.9 °F 57.0 °F 97% 30.18 in 0.2 mi Calm Calm - N/A Fog Fog
7:53 AM 57.9 °F 57.0 °F 97% 30.21 in 0.2 mi Calm Calm - 0.01 in Fog Fog
8:26 AM 57.2 °F 57.2 °F 100% 30.23 in 0.5 mi NE 3.5 mph - N/A Fog Fog
8:50 AM 57.2 °F 57.2 °F 100% 30.24 in 0.2 mi Calm Calm - N/A Fog Fog
8:53 AM 59.0 °F 57.9 °F 96% 30.24 in 0.2 mi Calm Calm - N/A Fog Fog
9:29 AM 59.0 °F 57.2 °F 94% 30.25 in 0.5 mi Calm Calm - N/A Fog Fog
10:23 AM 59.0 °F 57.2 °F 94% 30.26 in 1.2 mi Calm Calm - N/A   Overcast
10:53 AM 60.1 °F 57.9 °F 93% 30.25 in 3.0 mi Calm Calm - N/A   Overcast
11:53 AM 63.0 °F 59.0 °F 87% 30.25 in 7.0 mi Calm Calm - N/A   Overcast
12:43 PM 62.6 °F 57.2 °F 82% 30.25 in 8.0 mi Calm Calm - N/A   Overcast
12:53 PM 63.0 °F 57.9 °F 84% 30.24 in 8.0 mi WSW 3.5 mph - N/A   Overcast
1:12 PM 64.4 °F 59.0 °F 83% 30.24 in 9.0 mi Calm Calm - N/A   Overcast
1:53 PM 66.0 °F 57.9 °F 75% 30.21 in 9.0 mi Calm Calm - N/A   Overcast
2:53 PM 66.0 °F 57.9 °F 75% 30.20 in 8.0 mi Calm Calm - N/A   Overcast
3:53 PM 68.0 °F 57.0 °F 68% 30.18 in 9.0 mi Calm Calm - N/A   Overcast
4:53 PM 69.1 °F 57.9 °F 68% 30.17 in 9.0 mi Calm Calm - N/A   Overcast
5:53 PM 69.1 °F 57.9 °F 68% 30.15 in 8.0 mi ENE 3.5 mph - N/A   Overcast
6:15 PM 69.8 °F 59.0 °F 68% 30.15 in 9.0 mi NNE 5.8 mph - N/A   Scattered Clouds
6:53 PM 70.0 °F 59.0 °F 68% 30.14 in 8.0 mi NNE 6.9 mph - N/A   Clear
7:53 PM 66.9 °F 59.0 °F 76% 30.12 in 8.0 mi NE 4.6 mph - N/A   Clear
8:53 PM 64.9 °F 57.9 °F 78% 30.13 in 9.0 mi East 4.6 mph - N/A   Clear
9:53 PM 63.0 °F 57.9 °F 84% 30.11 in 8.0 mi East 3.5 mph - N/A   Clear
10:53 PM 61.0 °F 57.0 °F 87% 30.08 in 7.0 mi East 4.6 mph - N/A   Clear
11:53 PM 62.1 °F 57.0 °F 84% 30.08 in 9.0 mi East 3.5 mph - N/A   Clear